Simultaneous Nadir Overpasses (SNOs) Predictions

Prediction of SNOs between AQUA and METOP-C Satellite Orbit:

Table of predicted SNOs for the next 14.0 days since TLE Epoch: 6/3/2023
Index Date (AQUA) Time (AQUA) Lat,Lon (AQUA) SZA (AQUA ) Date (METOP-C) Time (METOP-C) Lat,Lon (METOP-C) SZA (METOP-C ) Distance(km) Time Diff (sec)
1 06/03/2023 11:42:18 73.87, 1.63 51.48 06/03/2023 11:41:12 73.80, -1.22 51.49 88.61 66
2 06/03/2023 12:31:53 -74.47, 167.89 127.91 06/03/2023 12:31:40 -74.48, 167.79 127.89 3.25 13
3 06/03/2023 13:21:20 74.53, -24.63 52.16 06/03/2023 13:22:18 74.57, -24.64 52.19 3.74 58
4 06/06/2023 05:35:11 74.37, 92.33 51.68 06/06/2023 05:33:59 74.28, 91.69 51.62 21.53 72
5 06/06/2023 06:24:37 -74.49,-100.33 128.19 06/06/2023 06:24:36 -74.52,-100.36 128.16 2.68 1
6 06/06/2023 07:14:04 74.56, 67.14 51.89 06/06/2023 07:15:15 74.54, 67.05 51.86 3.31 71
7 06/08/2023 23:27:56 74.44,-176.00 51.50 06/08/2023 23:26:53 74.44,-176.13 51.51 3.67 63
8 06/09/2023 00:17:21 -74.51, -8.53 128.43 06/09/2023 00:17:33 -74.54, -8.53 128.40 3.29 12
9 06/09/2023 01:06:56 74.99, 157.89 52.08 06/09/2023 01:08:03 75.00, 160.05 52.04 62.31 67
10 06/11/2023 17:20:40 74.51, -84.32 51.37 06/11/2023 17:19:49 74.50, -84.22 51.36 3.30 51
11 06/11/2023 18:10:04 -74.53, 83.28 128.62 06/11/2023 18:10:30 -74.56, 83.27 128.59 3.60 26
12 06/14/2023 11:13:21 74.52, 7.50 51.22 06/14/2023 11:12:45 74.50, 7.54 51.20 2.96 36
13 06/14/2023 12:02:46 -74.59, 174.99 128.71 06/14/2023 12:03:26 -74.57, 175.06 128.74 3.05 40



Historial Predications of SNOs between AQUA and METOP-C
